Date,TemperatureHighF,TemperatureAvgF,TemperatureLowF,DewpointHighF,DewpointAvgF,DewpointLowF,HumidityHigh,HumidityAvg,HumidityLow,PressureMaxIn,PressureMinIn,WindSpeedMaxMPH,WindSpeedAvgMPH,GustSpeedMaxMPH,PrecipitationSumIn
2013-1-1,59,48,42,26,20,14,49,34,25,30.12,30.03,5,0,5,0.24
2013-1-2,64,49,42,26,18,12,39,29,24,30.09,29.97,0,0,0,0.24
2013-1-3,60,47,41,25,20,14,46,33,25,30.12,30.00,3,0,3,0.24
2013-1-4,62,50,43,25,20,17,40,32,24,30.15,30.00,3,0,3,0.24
2013-1-5,52,48,43,38,28,20,62,45,36,30.09,29.91,3,0,3,0.24
2013-1-6,60,50,46,41,32,23,65,52,29,30.03,29.91,3,0,3,0.24
2013-1-7,61,51,44,43,31,25,66,48,27,30.12,30.00,0,0,0,0.24
2013-1-8,65,52,46,43,30,23,62,43,24,30.09,29.97,0,0,0,0.24
2013-1-9,56,50,46,38,27,16,57,42,28,30.00,29.83,8,0,8,0.24
2013-1-10,57,47,42,22,17,14,38,30,25,30.03,29.91,6,0,6,0.00
2013-1-11,59,47,42,24,17,12,39,30,25,30.12,29.97,7,0,7,0.24
2013-1-12,56,45,39,21,18,11,45,33,25,30.09,29.97,3,0,3,0.24
2013-1-13,57,44,35,21,14,8,39,29,25,30.12,30.00,3,0,3,0.24
2013-1-14,58,44,37,23,13,8,29,28,25,30.24,30.09,4,0,4,0.00
2013-1-15,58,45,39,23,16,11,45,32,25,30.33,30.24,0,0,0,0.00
2013-1-16,62,48,39,25,18,12,40,30,24,30.30,30.09,4,0,4,0.00
2013-1-17,67,52,42,28,20,14,41,29,23,30.12,29.97,4,0,4,0.00
2013-1-18,70,55,45,30,21,16,31,27,22,30.06,29.97,3,0,3,0.00
2013-1-19,69,56,46,30,21,15,29,26,23,30.09,30.00,4,0,4,0.00
2013-1-20,70,56,47,30,21,15,28,25,22,30.06,29.97,3,0,3,0.00
2013-1-21,69,54,45,30,20,14,32,27,23,30.03,29.91,0,0,0,0.00
2013-1-22,64,53,47,27,21,18,34,28,24,29.94,29.83,3,0,3,0.00
2013-1-23,54,52,50,40,29,22,63,42,30,29.94,29.80,3,0,3,0.12
2013-1-24,64,56,52,46,39,32,65,54,34,30.03,29.91,0,0,0,0.04
2013-1-25,71,59,54,47,36,30,62,43,23,30.03,29.88,0,0,0,0.00
2013-1-26,62,54,48,40,33,18,58,47,24,29.94,29.83,11,0,11,0.00
2013-1-27,61,50,44,25,19,16,35,29,24,30.03,29.91,8,0,8,0.00
2013-1-28,50,47,46,25,19,16,39,33,29,30.06,30.00,5,0,5,0.00
2013-1-30,68,58,50,29,24,20,36,28,23,30.12,30.09,4,0,4,0.00
2013-1-31,69,56,48,30,26,22,45,32,23,30.12,30.00,4,0,4,0.00
2013-2-1,72,55,49,31,26,22,38,32,22,30.06,29.94,3,0,3,0.00
2013-2-2,57,51,48,39,33,26,61,51,34,30.15,30.06,3,0,3,0.00
2013-2-3,62,54,47,34,28,23,56,39,25,30.09,29.97,4,0,4,0.00
2013-2-4,59,56,50,42,32,29,65,42,34,30.03,29.91,3,0,3,0.00
2013-2-5,56,56,49,29,29,20,35,35,30,30.00,29.91,0,0,0,0.00
2013-2-6,64,51,43,31,24,21,50,36,24,30.03,29.94,6,0,6,0.00
2013-2-7,58,50,45,38,27,18,60,42,25,30.03,29.85,9,1,9,0.12
2013-2-8,60,50,42,30,23,16,54,37,25,29.88,29.77,6,0,6,0.08
2013-2-9,63,52,44,26,18,13,30,26,24,29.94,29.83,5,0,5,0.00
2013-2-10,63,50,41,29,22,16,49,33,24,29.97,29.85,5,0,5,0.00
2013-2-11,70,55,46,30,22,16,47,28,22,30.09,29.91,5,0,5,0.00
2013-2-12,67,53,45,38,28,22,60,41,23,30.21,30.09,4,0,4,0.00
2013-2-13,63,52,46,41,30,20,63,46,24,30.18,30.06,3,0,3,0.00
2013-2-14,71,56,46,45,30,22,65,40,22,30.09,29.97,5,0,5,0.00
2013-2-15,77,62,51,34,26,20,36,26,21,30.12,30.03,4,0,4,0.00
2013-2-16,74,59,50,32,26,21,46,29,21,30.06,29.88,4,0,4,0.00
2013-2-17,68,54,46,37,28,20,61,40,23,29.91,29.80,5,0,5,0.00
2013-2-18,57,49,45,32,24,17,56,39,25,29.88,29.80,11,2,11,0.00
2013-2-19,53,46,42,32,22,13,55,38,27,29.83,29.59,13,2,13,0.31
2013-2-20,65,50,39,27,18,12,39,29,23,29.91,29.71,4,0,4,0.00
2013-2-21,66,52,43,27,20,15,37,29,23,30.00,29.88,4,0,4,0.00
2013-2-22,66,53,44,36,26,21,57,37,23,30.09,30.00,6,0,6,0.00
2013-2-23,66,54,47,35,23,16,55,31,23,30.12,30.00,6,0,6,0.00
2013-2-24,67,54,48,29,22,15,47,29,23,30.09,30.00,6,0,6,0.00
2013-2-25,65,53,45,38,28,22,60,40,24,30.12,30.00,5,0,5,0.00
2013-2-26,70,54,44,30,23,18,41,31,22,30.06,29.97,4,0,4,0.00
2013-2-27,68,54,45,33,26,21,52,35,23,30.21,30.06,5,0,5,0.00
2013-2-28,66,55,50,42,34,28,64,47,25,30.30,30.21,6,0,6,0.00
2013-3-1,77,59,50,51,36,24,70,46,21,30.30,30.06,4,0,4,0.00
2013-3-2,70,58,53,36,31,26,48,37,23,30.09,29.91,6,0,6,0.00
2013-3-3,68,56,52,40,31,25,59,41,23,29.94,29.88,10,2,10,0.00
2013-3-4,58,52,45,26,26,21,42,37,26,30.00,29.91,12,0,12,0.00
2013-3-5,60,50,44,36,25,20,56,37,25,29.91,29.68,14,2,14,0.08
2013-3-6,59,52,46,40,26,21,61,38,25,29.91,29.68,18,3,18,0.08
2013-3-7,58,50,46,37,28,21,59,44,26,29.85,29.71,4,0,4,0.00
2013-3-8,67,53,46,30,23,18,50,32,23,29.88,29.68,11,1,11,0.00
2013-3-9,69,54,44,30,25,21,48,34,23,30.15,29.88,6,0,6,0.00
2013-3-10,70,56,47,38,27,20,55,35,23,30.21,30.09,5,0,5,0.00
2013-3-11,72,55,46,40,29,23,59,38,22,30.09,29.94,6,0,6,0.00
2013-3-12,71,56,50,46,35,27,70,49,23,30.00,29.91,4,0,4,0.00
2013-3-13,77,59,49,50,35,26,68,45,21,30.00,29.88,4,0,4,0.00
2013-3-14,67,55,50,41,34,26,61,46,24,30.03,29.94,4,0,6,0.00
2013-3-15,69,56,50,43,34,26,65,47,23,29.97,29.88,6,0,6,0.00
2013-3-16,74,58,50,47,34,23,69,44,21,29.97,29.85,8,0,8,0.00
2013-3-17,70,57,50,30,23,18,38,27,22,30.00,29.88,9,1,9,0.00
2013-3-18,62,53,48,37,28,21,58,39,25,29.97,29.88,7,0,7,0.00
2013-3-19,63,54,49,34,29,22,50,40,24,30.00,29.91,6,0,6,0.04
2013-3-20,59,54,49,49,41,30,71,62,39,29.97,29.91,10,1,10,0.28
2013-3-21,66,54,46,44,29,19,70,40,23,29.97,29.85,7,1,7,0.00
2013-3-22,73,57,47,32,24,17,41,29,22,29.97,29.85,6,0,6,0.00
2013-3-23,69,56,46,30,23,16,41,27,23,30.00,29.88,6,0,6,0.00
2013-3-24,69,54,47,36,29,23,56,39,23,29.94,29.80,5,0,5,0.00
2013-3-25,62,51,45,32,26,22,52,38,25,29.88,29.80,9,1,9,0.00
2013-3-26,66,54,47,31,27,23,47,36,24,29.85,29.77,6,0,6,0.00
2013-3-27,60,55,50,46,37,26,69,52,36,29.85,29.80,8,0,8,0.00
2013-3-28,63,57,55,50,45,35,71,65,37,29.94,29.85,5,0,5,0.00
2013-3-29,75,59,51,46,34,27,64,41,21,29.94,29.85,8,0,8,0.00
2013-3-30,68,58,53,46,36,26,66,46,23,29.91,29.83,10,2,10,0.04
2013-3-31,65,59,56,51,42,32,71,55,32,29.91,29.85,11,2,11,0.08
2013-4-1,67,59,53,50,38,25,69,48,24,30.00,29.88,8,1,8,0.35
2013-4-2,68,57,50,40,32,28,57,41,25,30.03,29.91,6,0,6,0.00
2013-4-3,74,57,51,45,36,27,68,49,21,29.97,29.83,7,1,7,0.00
2013-4-4,62,57,52,50,45,36,71,64,43,29.97,29.83,10,2,10,0.55
2013-4-5,66,59,56,50,41,27,72,54,25,30.03,29.97,9,2,9,0.00
2013-4-6,56,56,56,37,37,37,49,49,49,30.00,30.00,0,0,0,0.00
2013-4-7,56,56,56,37,37,37,49,49,49,30.00,30.00,0,0,0,0.00
2013-4-8,56,56,56,37,37,37,49,49,49,30.00,30.00,0,0,0,0.00
2013-4-9,56,56,56,37,37,37,49,49,49,30.00,30.00,0,0,0,0.00
2013-4-10,56,56,56,37,37,37,49,49,49,30.00,30.00,0,0,0,0.00
2013-4-11,56,56,56,37,37,37,49,49,49,30.00,30.00,0,0,0,0.00
2013-4-12,56,56,56,37,37,37,49,49,49,30.00,30.00,0,0,0,0.00
2013-4-13,56,56,56,37,37,37,49,49,49,30.00,30.00,0,0,0,0.00
2013-4-14,56,56,56,37,37,37,49,49,49,30.00,30.00,0,0,0,0.00
2013-4-15,56,56,56,37,37,37,49,49,49,30.00,30.00,0,0,0,0.00
2013-4-16,56,56,56,37,37,37,49,49,49,30.00,30.00,0,0,0,0.00
2013-4-17,56,56,56,37,37,37,49,49,49,30.00,30.00,0,0,0,0.00
2013-4-18,56,56,56,37,37,37,49,49,49,30.00,30.00,0,0,0,0.00
2013-4-19,56,56,56,37,37,37,49,49,49,30.00,30.00,0,0,0,0.00
2013-4-20,56,56,56,37,37,37,49,49,49,30.00,30.00,0,0,0,0.00
2013-4-21,56,56,56,37,37,37,49,49,49,30.00,30.00,0,0,0,0.00
2013-4-22,56,56,56,37,37,37,49,49,49,30.00,30.00,0,0,0,0.00
2013-4-23,56,56,56,37,37,37,49,49,49,30.00,30.00,0,0,0,0.00
2013-4-24,56,56,56,37,37,37,49,49,49,30.00,30.00,0,0,0,0.00
2013-4-25,56,56,56,37,37,37,49,49,49,30.00,30.00,0,0,0,0.00
2013-4-26,56,56,56,37,37,37,49,49,49,30.00,30.00,0,0,0,0.00
2013-4-27,56,56,56,37,37,37,49,49,49,30.00,30.00,0,0,0,0.00
2013-4-28,56,56,56,37,37,37,49,49,49,30.00,30.00,0,0,0,0.00
2013-4-29,56,56,56,37,37,37,49,49,49,30.00,30.00,0,0,0,0.00
2013-4-30,56,56,56,37,37,37,49,49,49,30.00,30.00,0,0,0,0.00
2013-5-1,56,56,56,37,37,37,49,49,49,30.00,30.00,0,0,0,0.00
2013-5-2,56,56,56,37,37,37,49,49,49,30.00,30.00,0,0,0,0.00
2013-5-3,56,56,56,37,37,37,49,49,49,30.00,30.00,0,0,0,0.00
2013-5-4,56,56,56,37,37,37,49,49,49,30.00,30.00,0,0,0,0.00
2013-5-5,60,56,56,37,37,31,49,48,34,30.00,29.65,0,0,0,0.00
2013-5-6,60,60,60,31,31,31,34,34,34,29.65,29.65,0,0,0,0.00
2013-5-7,60,60,60,31,31,31,34,34,34,29.65,29.65,0,0,0,0.00
2013-5-8,60,60,60,31,31,31,34,34,34,29.65,29.65,0,0,0,0.00
2013-5-9,60,60,60,31,31,31,34,34,34,29.65,29.65,0,0,0,0.00
2013-5-10,60,60,60,31,31,31,34,34,34,29.65,29.65,0,0,0,0.00
2013-5-11,60,60,60,31,31,31,34,34,34,29.65,29.65,0,0,0,0.00
2013-5-12,74,63,56,47,34,30,65,35,23,30.00,29.65,6,0,6,0.00
2013-5-13,72,60,53,44,36,30,64,43,23,29.94,29.80,6,0,6,0.00
2013-5-14,71,60,54,39,32,25,54,36,23,29.83,29.77,8,1,8,0.00
2013-5-15,70,60,51,33,29,26,46,31,22,29.88,29.83,6,0,6,0.00
2013-5-16,68,60,55,38,32,27,44,34,24,29.88,29.80,9,1,9,0.00
2013-5-17,67,58,52,30,27,23,41,31,23,29.91,29.83,10,1,10,0.00
2013-5-18,78,56,50,38,32,26,52,42,21,29.97,29.91,0,0,0,0.00
2013-5-19,82,64,54,37,31,23,46,31,20,29.97,29.83,5,0,5,0.00
2013-5-20,83,62,55,41,32,25,46,34,19,29.85,29.77,5,0,5,0.00
2013-5-21,75,61,53,33,29,19,45,30,21,29.83,29.77,6,1,6,0.00
2013-5-22,71,58,49,31,22,16,27,25,22,29.88,29.74,7,0,7,0.00
2013-5-23,68,55,48,29,22,19,33,27,23,29.85,29.77,7,0,7,0.00
2013-5-24,72,58,50,36,28,22,52,33,22,29.85,29.77,6,0,6,0.00
2013-5-25,74,58,49,33,28,22,49,32,21,29.88,29.80,5,0,5,0.00
2013-5-26,66,59,53,45,33,28,63,39,25,29.97,29.88,8,1,8,0.00
2013-5-27,64,58,54,50,38,31,72,48,34,29.97,29.85,6,1,6,0.00
2013-5-28,73,62,58,50,42,27,72,53,22,29.85,29.77,6,0,6,0.00
2013-5-29,75,63,57,39,31,24,46,31,22,29.83,29.74,6,0,6,0.00
2013-5-30,77,61,51,36,30,24,51,32,21,29.85,29.77,7,0,7,0.00
2013-5-31,77,61,52,36,32,26,49,35,21,29.88,29.74,4,0,4,0.00
2013-6-1,72,61,54,36,32,27,49,35,22,29.80,29.62,4,0,4,0.00
2013-6-2,67,59,54,38,34,29,54,40,24,29.65,29.56,6,0,6,0.00
2013-6-3,67,67,67,29,29,29,24,24,24,29.56,29.56,0,0,0,0.00
2013-6-4,67,67,67,29,29,29,24,24,24,29.56,29.56,0,0,0,0.00
2013-6-5,67,67,67,29,29,29,24,24,24,29.56,29.56,0,0,0,0.00
2013-6-6,67,62,54,43,33,29,64,36,24,29.74,29.56,7,1,7,0.00
2013-6-7,77,63,55,49,38,28,72,46,21,29.74,29.56,6,1,6,0.00
2013-6-8,71,61,56,47,36,30,67,41,23,29.68,29.56,12,2,12,0.00
2013-6-9,63,60,58,49,42,34,69,54,35,29.74,29.65,10,4,10,0.00
2013-6-10,66,60,56,48,38,29,68,46,26,29.80,29.68,11,3,11,0.00
2013-6-11,70,60,56,39,36,28,50,41,23,29.83,29.74,5,0,5,0.00
2013-6-12,81,64,53,42,33,25,58,35,20,29.83,29.77,6,0,6,0.00
2013-6-13,80,62,52,35,30,26,46,31,20,29.94,29.83,5,0,5,0.00
2013-6-14,79,63,54,38,32,25,49,33,21,29.85,29.65,5,0,5,0.00
2013-6-15,66,57,52,43,35,28,68,46,25,29.85,29.68,8,1,8,0.00
2013-6-16,76,61,53,41,34,28,59,39,21,29.91,29.83,5,0,5,0.00
2013-6-17,76,63,53,39,33,29,49,34,21,29.94,29.85,7,0,7,0.00
2013-6-18,60,58,55,38,34,32,49,41,35,29.88,29.85,4,0,4,0.00
2013-6-19,60,60,60,32,32,32,35,35,35,29.88,29.88,0,0,0,0.00
2013-6-20,60,60,60,32,32,32,35,35,35,29.88,29.88,0,0,0,0.00
2013-6-21,60,60,60,32,32,32,35,35,35,29.88,29.88,0,0,0,0.00
2013-6-22,60,60,60,32,32,32,35,35,35,29.88,29.88,0,0,0,0.00
2013-6-23,60,60,60,32,32,32,35,35,35,29.88,29.88,0,0,0,0.00
2013-6-24,60,60,60,32,32,32,35,35,35,29.88,29.88,0,0,0,0.00
2013-6-25,60,60,60,32,32,32,35,35,35,29.88,29.88,0,0,0,0.00
2013-6-26,60,60,60,32,32,32,35,35,35,29.88,29.88,0,0,0,0.00
2013-6-27,60,60,60,32,32,32,35,35,35,29.88,29.88,0,0,0,0.00
2013-6-28,60,60,60,32,32,32,35,35,35,29.88,29.88,0,0,0,0.00
2013-6-29,60,60,60,32,32,32,35,35,35,29.88,29.88,0,0,0,0.00
2013-6-30,60,60,60,32,32,32,35,35,35,29.88,29.88,0,0,0,0.00
2013-7-1,60,60,60,32,32,32,35,35,35,29.88,29.88,0,0,0,0.00
2013-7-2,60,60,60,32,32,32,35,35,35,29.88,29.88,0,0,0,0.00
2013-7-3,60,60,60,32,32,32,35,35,35,29.88,29.88,0,0,0,0.00
2013-7-4,60,60,60,32,32,32,35,35,35,29.88,29.88,0,0,0,0.00
2013-7-5,60,60,60,32,32,32,35,35,35,29.88,29.88,0,0,0,0.00
2013-7-6,60,60,60,32,32,32,35,35,35,29.88,29.88,0,0,0,0.00
2013-7-7,60,60,60,32,32,32,35,35,35,29.88,29.88,0,0,0,0.00
2013-7-8,69,63,56,44,35,30,63,37,25,29.83,29.77,6,1,6,0.00
2013-7-9,80,64,56,48,40,30,69,46,20,29.88,29.77,3,0,3,0.00
2013-7-10,69,60,55,47,39,31,68,50,24,29.83,29.77,6,1,6,0.00
2013-7-11,67,58,54,46,40,29,69,52,26,29.80,29.74,9,1,9,0.00
2013-7-12,67,59,55,43,36,29,59,44,25,29.80,29.74,10,1,10,0.00
2013-7-13,71,61,56,43,36,29,62,41,23,29.83,29.74,6,0,6,0.00
2013-7-14,68,59,55,44,38,29,66,47,25,29.85,29.74,6,0,6,0.00
2013-7-15,65,58,54,46,40,30,71,54,27,29.80,29.71,10,1,10,0.00
2013-7-16,62,59,56,45,40,35,63,50,37,29.88,29.74,8,0,232,0.00
2013-7-17,72,62,57,41,36,30,55,39,23,29.94,29.88,6,0,6,0.00
2013-7-18,71,61,56,47,39,30,68,48,23,29.91,29.80,6,0,6,0.00
2013-7-19,71,60,56,48,40,30,71,49,24,29.83,29.68,8,0,8,0.00
2013-7-20,69,59,55,48,40,30,72,52,24,29.71,29.59,7,1,7,0.00
2013-7-21,68,59,55,48,39,29,71,50,25,29.74,29.62,6,1,6,0.00
2013-7-22,70,62,56,53,43,34,72,52,27,29.83,29.74,9,1,9,0.00
2013-7-23,70,63,58,45,39,32,59,42,25,29.85,29.80,6,0,6,0.00
2013-7-24,76,64,58,50,40,31,68,44,21,29.85,29.74,6,0,231,0.00
2013-7-25,70,61,56,46,38,29,67,46,23,29.88,29.80,7,0,7,0.00
2013-7-26,68,60,56,47,42,32,69,53,26,29.94,29.85,6,1,6,0.00
2013-7-27,68,60,56,50,43,32,71,56,27,29.88,29.74,6,1,9,0.00
2013-7-28,65,59,56,49,41,30,72,53,27,29.74,29.68,8,2,8,0.00
2013-7-29,63,59,57,43,39,34,59,48,34,29.88,29.71,11,2,11,0.00
2013-7-30,66,59,56,46,39,31,64,49,28,29.97,29.88,8,1,8,0.00
2013-7-31,74,61,55,47,38,28,68,45,22,29.94,29.85,6,1,6,0.00
2013-8-1,74,62,54,42,34,28,57,36,22,29.91,29.80,4,0,4,0.00
2013-8-2,73,61,55,45,36,28,64,42,22,29.85,29.74,5,0,5,0.00
2013-8-3,56,56,56,38,38,38,50,50,50,29.85,29.77,6,0,6,0.00
2013-8-4,56,56,56,38,38,38,50,50,50,29.88,29.83,7,1,7,0.00
2013-8-5,66,58,56,45,40,29,64,51,25,29.88,29.83,6,1,6,0.00
2013-8-8,66,66,66,30,30,30,26,26,26,29.83,29.83,0,0,0,0.00
2013-8-9,66,66,66,30,30,30,26,26,26,29.83,29.83,0,0,0,0.00
2013-8-10,66,66,66,30,30,30,26,26,26,29.83,29.83,0,0,0,0.00
2013-8-11,66,66,66,30,30,30,26,26,26,29.83,29.83,0,0,0,0.00
2013-8-12,66,66,66,30,30,30,26,26,26,29.83,29.83,0,0,0,0.00
2013-8-13,66,66,66,30,30,30,26,26,26,29.83,29.83,0,0,0,0.00
2013-8-14,78,67,58,47,35,30,63,32,21,29.83,29.83,5,0,5,0.00
2013-8-15,81,68,61,53,44,36,67,46,21,29.83,29.83,5,0,5,0.00
2013-8-16,78,66,60,52,41,32,66,43,21,29.83,29.83,4,0,4,0.00
2013-8-17,63,63,63,37,37,37,38,38,38,29.83,29.83,4,0,4,0.00
2013-8-18,63,63,63,37,37,37,38,38,38,29.83,29.83,4,0,4,0.00
2013-8-19,76,66,60,50,39,32,67,40,22,29.83,29.83,6,1,6,0.00
2013-8-20,71,63,60,52,44,33,71,52,25,29.83,29.83,9,2,9,0.00
2013-8-21,61,60,59,44,40,38,55,48,42,29.83,29.83,6,1,6,0.00
2013-8-22,61,61,61,38,38,38,42,42,42,29.83,29.83,0,0,0,0.00
2013-8-23,61,61,61,38,38,38,42,42,42,29.83,29.83,0,0,0,0.00
2013-8-24,61,61,61,38,38,38,42,42,42,29.83,29.83,0,0,0,0.00
2013-8-25,61,61,61,38,38,38,42,42,42,29.83,29.83,0,0,0,0.00
2013-8-26,61,61,61,38,38,38,42,42,42,29.83,29.83,0,0,0,0.00
2013-8-27,61,61,61,38,38,38,42,42,42,29.83,29.83,0,0,0,0.00
2013-8-31,80,69,60,52,39,32,68,35,21,29.71,29.62,6,0,6,0.00
2013-9-1,77,66,58,46,38,32,56,37,21,29.68,29.62,4,0,4,0.00
2013-9-2,78,68,63,52,42,36,60,39,22,29.68,29.62,6,0,6,0.00
2013-9-3,77,66,60,50,40,33,62,42,22,29.74,29.65,6,0,6,0.00
2013-9-4,82,67,59,50,39,33,63,38,20,29.77,29.68,5,0,5,0.00
2013-9-5,82,68,59,48,37,31,60,34,20,29.74,29.68,4,0,4,0.00
2013-9-6,89,70,58,50,38,30,58,33,18,29.74,29.53,0,0,0,0.00
2013-9-7,90,73,63,41,35,29,33,26,18,506.76,29.53,5,1,5,0.00
2013-9-8,64,64,64,34,34,34,33,33,33,506.76,40.00,3,3,3,0.00
2013-9-9,64,64,64,34,34,34,33,33,33,0.00,40.00,3,3,3,0.00
2013-9-10,64,64,64,34,34,34,33,33,33,0.00,40.00,3,3,3,0.00
2013-9-11,64,64,64,34,34,34,33,33,33,0.00,40.00,3,3,3,0.00
2013-9-12,64,64,64,34,34,34,33,33,33,0.00,40.00,3,3,3,0.00
2013-9-13,64,64,64,34,34,34,33,33,33,0.00,40.00,3,3,3,0.00
2013-9-14,64,64,64,34,34,34,33,33,33,0.00,40.00,3,3,3,0.00
2013-9-15,64,64,64,34,34,34,33,33,33,0.00,40.00,3,3,3,0.00
2013-9-16,64,64,64,34,34,34,33,33,33,0.00,40.00,3,3,3,0.00
2013-9-17,64,64,64,34,34,34,33,33,33,0.00,40.00,3,3,3,0.00
2013-9-18,64,64,64,34,34,34,33,33,33,0.00,40.00,3,3,3,0.00
2013-9-19,64,64,64,34,34,34,33,33,33,0.00,40.00,3,3,3,0.00
2013-9-20,64,64,64,34,34,34,33,33,33,0.00,40.00,3,3,3,0.00
2013-9-21,74,68,64,48,40,34,43,36,33,506.76,29.65,3,2,3,0.00
2013-9-22,76,70,65,45,42,39,42,37,32,29.83,29.74,0,0,0,0.00
2013-9-23,81,73,68,48,43,39,37,34,31,29.85,29.77,0,0,0,0.00
2013-9-24,74,71,67,45,42,37,43,36,28,29.83,29.74,0,0,0,0.00
2013-9-25,76,67,58,37,34,29,39,30,22,29.77,29.65,7,0,7,0.00
2013-9-26,96,68,54,42,33,27,45,29,14,29.83,29.68,5,0,5,0.00
2013-9-27,102,70,56,45,32,24,66,28,11,29.94,29.83,6,0,6,0.00
2013-9-28,100,69,53,48,41,27,67,43,11,29.91,29.83,4,0,4,0.00
2013-9-29,89,66,55,57,51,45,84,62,25,29.94,29.88,6,0,6,0.00
2013-9-30,86,64,56,69,57,48,92,81,34,29.91,29.83,3,0,3,0.00
2013-10-1,87,64,51,50,42,34,82,51,19,29.85,29.74,5,0,5,0.00
2013-10-2,94,67,53,49,40,27,71,43,17,29.85,29.77,5,0,5,0.00
2013-10-3,99,71,56,41,27,20,31,21,10,29.91,29.80,5,0,6,0.00
2013-10-4,111,78,62,37,26,16,21,16,8,29.91,29.80,8,0,8,0.00
2013-10-5,113,79,61,36,24,14,19,14,7,30.03,29.91,0,0,0,0.00
2013-10-6,110,75,56,38,25,16,25,17,8,29.97,29.83,2,0,2,0.00
2013-10-7,99,70,56,46,30,17,67,26,10,29.83,29.71,3,0,3,0.00
2013-10-8,91,63,50,58,41,32,74,52,15,29.74,29.56,6,0,6,0.00
2013-10-9,86,62,49,44,37,27,73,45,16,29.59,29.47,5,0,5,0.00
2013-10-10,79,60,51,45,40,33,77,53,21,29.85,29.59,6,1,6,0.00
2013-10-11,84,60,50,47,40,31,83,55,19,29.94,29.83,5,0,5,0.00
2013-10-12,82,59,49,51,40,28,86,56,20,29.85,29.74,6,0,6,0.00
2013-10-13,94,64,50,49,37,25,77,43,13,29.91,29.77,5,0,5,0.00
2013-10-14,105,69,50,50,35,22,72,37,9,29.97,29.83,0,0,0,0.00
2013-10-15,112,73,52,40,30,22,46,25,7,29.88,29.77,0,0,0,0.00
2013-10-16,110,73,54,42,29,20,43,23,8,29.91,29.83,0,0,0,0.00
2013-10-17,107,72,53,42,31,22,48,25,9,29.91,29.80,0,0,0,0.00
2013-10-18,96,64,48,50,38,29,74,45,15,29.91,29.83,4,0,4,0.00
2013-10-19,105,66,48,62,40,28,80,48,12,29.91,29.83,0,0,0,0.00
2013-10-20,92,53,46,51,41,31,80,68,17,29.88,29.74,4,0,4,0.00
2013-10-21,85,58,48,46,42,33,82,62,19,29.85,29.74,4,0,4,0.00
2013-10-22,90,59,49,63,44,34,86,65,18,29.85,29.77,3,0,3,0.00
2013-10-23,89,58,48,50,43,33,85,65,18,29.83,29.74,4,0,4,0.00
2013-10-24,84,56,49,46,41,34,83,61,20,29.94,29.83,6,0,6,0.00
2013-10-25,90,61,47,57,40,33,81,53,19,30.00,29.91,3,0,3,0.00
2013-10-26,98,63,48,68,42,33,89,54,16,30.00,29.85,0,0,0,0.00
2013-10-27,75,54,49,47,42,35,90,66,30,29.88,29.50,12,2,12,0.00
2013-10-28,83,59,49,44,38,32,69,49,20,29.68,29.50,6,1,6,0.00
2013-10-29,78,58,49,45,39,0,74,52,23,29.88,29.68,6,0,6,0.00
2013-10-30,85,59,47,52,38,30,80,52,19,30.00,29.88,5,0,5,0.00
2013-10-31,95,62,48,51,36,27,76,44,14,30.03,29.91,3,0,4,0.00
2013-11-1,102,67,51,43,34,0,59,34,11,29.97,29.83,3,0,3,0.00
2013-11-2,87,62,50,51,38,30,76,44,21,29.85,29.74,4,0,4,0.00
2013-11-3,85,58,49,34,27,21,44,31,16,29.88,29.77,4,0,4,0.00
2013-11-4,91,63,46,36,25,17,44,26,12,29.91,29.77,5,0,5,0.00
2013-11-5,94,65,51,38,27,18,47,26,11,30.06,29.88,0,0,0,0.00
2013-11-6,95,65,53,39,29,24,39,27,12,30.09,30.00,0,0,0,0.00
2013-11-7,85,65,53,44,32,23,67,32,14,30.00,29.91,4,0,4,0.00
2013-11-8,53,53,53,43,43,43,67,67,67,29.91,29.91,0,0,0,0.00
2013-11-9,53,53,53,43,43,43,67,67,67,29.91,29.91,0,0,0,0.00
2013-11-10,53,53,53,43,43,43,67,67,67,29.91,29.91,0,0,0,0.00
2013-11-11,53,53,53,43,43,43,67,67,67,29.91,29.91,0,0,0,0.00
2013-11-12,53,53,53,43,43,43,67,67,67,29.91,29.91,0,0,0,0.00
2013-11-13,53,53,53,43,43,43,67,67,67,29.91,29.91,0,0,0,0.00
2013-11-14,58,54,53,43,42,25,67,64,29,29.91,29.71,4,0,4,0.00
2013-11-15,75,59,48,44,34,24,75,41,20,29.74,29.56,6,0,6,0.00
2013-11-16,80,57,45,45,38,33,77,53,21,29.77,29.62,3,0,3,0.00
2013-11-17,69,54,47,49,39,35,80,58,32,29.94,29.77,5,0,5,0.00
2013-11-18,63,53,46,47,40,35,79,62,38,30.00,29.94,6,0,6,0.00
2013-11-19,58,55,52,56,49,39,94,80,57,29.94,29.77,4,0,4,0.98
2013-11-20,63,56,50,61,54,49,95,94,85,29.80,29.68,6,0,6,2.17
2013-11-21,75,58,50,60,37,16,95,56,16,29.83,29.74,4,0,4,0.00
2013-11-22,86,64,53,30,19,12,23,17,13,29.85,29.74,4,0,4,0.00
2013-11-23,83,60,48,46,25,12,80,31,14,29.94,29.80,2,0,2,0.00
2013-11-24,77,56,44,48,35,25,81,50,20,30.09,29.94,0,0,0,0.00
2013-11-25,80,57,44,39,33,27,74,45,20,30.18,30.09,0,0,0,0.00
2013-11-26,54,52,48,35,34,32,58,49,47,30.12,29.88,0,0,0,0.00
2013-11-27,54,54,54,34,34,34,47,47,47,29.88,29.68,0,0,0,0.00
2013-11-28,54,54,54,34,34,34,47,47,47,29.91,29.71,5,0,5,0.00
2013-11-29,54,54,54,34,34,34,47,47,47,30.06,29.91,0,0,0,0.00
2013-11-30,54,54,54,34,34,34,47,47,47,30.12,30.03,3,0,3,0.00
2013-12-1,54,54,54,34,34,34,47,47,47,30.18,30.06,0,0,0,0.00
2013-12-2,54,54,54,34,34,34,47,47,47,30.06,29.80,0,0,0,0.00
2013-12-3,54,43,0,34,27,0,47,37,47,29.80,29.71,8,1,8,0.00
2013-12-4,0,0,0,0,0,0,0,0,100,29.91,29.80,5,0,5,0.00
2013-12-5,64,33,0,28,12,0,51,20,18,30.00,29.91,0,0,0,0.00
2013-12-6,54,45,36,45,28,18,88,52,33,30.03,29.77,10,1,10,0.47
2013-12-7,60,44,35,45,21,13,88,43,24,30.12,29.77,7,1,7,0.00
2013-12-8,64,43,33,26,16,7,56,36,19,30.18,30.06,2,0,2,0.00
2013-12-9,69,45,32,22,15,6,45,32,15,30.24,30.15,4,0,4,0.00
2013-12-10,72,48,37,25,19,14,48,33,17,30.24,30.03,0,0,0,0.00
2013-12-11,76,51,39,29,21,15,50,33,15,30.09,30.00,0,0,0,0.00
2013-12-12,77,53,42,32,24,16,49,34,16,30.12,30.00,0,0,0,0.00
2013-12-13,70,51,40,48,29,20,73,46,22,30.18,30.06,0,0,0,0.00
2013-12-14,79,49,41,38,31,19,71,54,17,30.24,30.15,3,0,3,0.00
2013-12-15,74,55,44,36,27,22,51,36,21,30.21,30.06,2,0,2,0.00
2013-12-16,86,59,48,36,27,19,49,31,13,30.09,29.94,4,0,4,0.00
2013-12-17,76,58,50,33,27,22,44,32,20,30.00,29.85,3,0,3,0.00
2013-12-18,67,53,47,39,32,25,63,45,31,29.88,29.59,4,0,5,0.00
2013-12-19,77,56,46,35,24,9,58,31,15,29.77,29.56,4,0,4,0.00
2013-12-20,70,53,42,32,20,7,47,28,20,29.85,29.77,4,0,4,0.00
2013-12-21,72,55,45,40,34,29,66,48,29,29.91,29.80,4,0,4,0.00
2013-12-22,79,57,45,39,31,22,69,43,17,30.12,29.91,0,0,0,0.00
2013-12-23,75,59,47,34,29,24,47,33,21,30.24,30.12,0,0,0,0.00
2013-12-24,72,72,72,32,32,32,22,22,22,30.18,30.18,0,0,0,0.00
2013-12-25,73,66,54,32,29,24,36,25,22,30.18,30.03,0,0,0,0.00
2013-12-26,78,59,50,34,27,21,47,31,18,30.09,30.00,0,0,0,0.00
2013-12-27,63,55,50,30,26,21,45,33,26,30.06,29.94,3,0,3,0.00
2013-12-28,71,56,47,32,26,21,42,32,23,29.97,29.85,0,0,0,0.00
2013-12-29,76,60,50,26,21,15,29,23,15,30.03,29.91,2,0,2,0.00
2013-12-30,68,55,48,40,29,21,64,37,24,30.09,30.00,0,0,0,0.00
2013-12-31,73,54,47,34,28,20,54,38,19,30.12,30.00,0,0,0,0.00
2014-1-1,69,54,46,35,27,21,50,36,24,30.06,29.97,0,0,0,0.00
2014-1-2,74,58,50,31,26,22,38,29,19,30.03,29.88,0,0,0,0.00